Powrót do katalogu

STARLINK-5186

AktywnyŁącznośćVLEO
NORAD 54177·PAYLOAD·🇺🇸 United States

Wystrzelony Oct 28, 2022 z Vandenberg Space Force Base

Loading…

Następne Przeloty (najbliższe 24 godziny)

TLE

ŚwieżeSource: CelesTrak SupGP

Epoka: Sep 14, 2026, 20:47 UTC

1 54177C 22141W   26257.86645833  .00030482  00000+0  90141-3 0  2570
2 54177  53.1579 220.0953 0001411 102.2661  74.9005 15.34347049    18

Śledź STARLINK-5186 w czasie rzeczywistym z AllMySat

Download on the App Store